This demonstration page uses our WeatherBlox Daily Observations layout. Learn more.

39.29038, -76.61219

Hourly Observations for January 6, 2019

Temp ( °F °C ) Dew Point ( °F °C ) Humidity (%) Winds ( mph kmh ) Pressure ( in mb ) Visibility ( mi km ) Precip ( " mm )
12:54 am 00:54 undefined 47 8.3 35 1.7 63 63 undefined N/A 29.83 1010 N/A 0 0
1:54 am 01:54 undefined 47 8.3 35 1.7 63 63 undefined N/A 29.85 1011 N/A 0 0
2:54 am 02:54 undefined 45 7.2 35 1.7 68 68 undefined N/A 29.85 1011 N/A 0 0
3:54 am 03:54 undefined 45 7.2 35 1.7 68 68 undefined N/A 29.88 1012 N/A 0 0
4:54 am 04:54 undefined 44 6.7 34 1.1 68 68 undefined N/A 29.85 1011 N/A 0 0
5:54 am 05:54 undefined 46 7.8 34 1.1 63 63 undefined N/A 29.88 1012 N/A 0 0
6:54 am 06:54 undefined 44 6.7 34 1.1 68 68 undefined N/A 29.91 1013 N/A 0 0
7:54 am 07:54 undefined 43 6.1 34 1.1 71 71 undefined N/A 29.94 1014 N/A 0 0
8:54 am 08:54 undefined 48 8.9 35 1.7 61 61 undefined N/A 30.03 1017 N/A 0 0
9:54 am 09:54 undefined 51 10.6 35 1.7 54 54 undefined N/A 30.03 1017 N/A 0 0
10:54 am 10:54 undefined 52 11.1 33 0.6 49 49 undefined N/A 30.03 1017 N/A 0 0
11:54 am 11:54 undefined 53 11.7 31 -0.6 43 43 undefined N/A 30.03 1017 N/A 0 0
12:54 pm 12:54 undefined 54 12.2 30 -1.1 40 40 undefined N/A 30.03 1017 N/A 0 0
1:54 pm 13:54 undefined 54 12.2 28 -2.2 37 37 undefined N/A 30.03 1017 N/A 0 0
2:54 pm 14:54 undefined 53 11.7 25 -3.9 34 34 undefined N/A 30.03 1017 N/A 0 0
3:54 pm 15:54 undefined 51 10.6 24 -4.4 35 35 undefined N/A 30.09 1019 N/A 0 0
4:54 pm 16:54 undefined 50 10 24 -4.4 36 36 undefined N/A 30.12 1020 N/A 0 0
5:54 pm 17:54 undefined 48 8.9 23 -5 37 37 undefined N/A 30.15 1021 N/A 0 0
6:54 pm 18:54 undefined 47 8.3 23 -5 39 39 undefined N/A 30.18 1022 N/A 0 0
7:54 pm 19:54 undefined 46 7.8 23 -5 40 40 undefined N/A 30.24 1024 N/A 0 0
8:54 pm 20:54 undefined 44 6.7 24 -4.4 45 45 undefined N/A 30.24 1024 N/A 0 0
9:54 pm 21:54 undefined 44 6.7 22 -5.6 41 41 undefined N/A 30.27 1025 N/A 0 0
10:54 pm 22:54 undefined 42 5.6 22 -5.6 45 45 undefined N/A 30.3 1026 N/A 0 0
11:54 pm 23:54 undefined 41 5 22 -5.6 47 47 undefined N/A 30.33 1027 N/A 0 0

Powered by AerisWeather